When you browse on this site, cookies collect data to enhance your experience and personalize the content and advertising you see.
Visit our Privacy Policy to learn more. By continuing to use the site, you agree to this use of cookies and data.
  • In Lithuania
  • List of Countries
  • For 7 days
  • Water Temperature
  • Weather Map
  • Weather Widgets
  • user-avatar
    Login

    Hourly Weather Córdoba

    Today, 17 October, Thursday

    Time Temperature Precipitation Wind Pressure Humidity
    00:00 +14°C° 0 mm 1 mps 725 mmHg 85%
    01:00 +14°C° 0 mm 1 mps 725 mmHg 84%
    02:00 +13°C° 0 mm 1 mps 725 mmHg 82%
    03:00 +13°C° 0 mm 1 mps 724 mmHg 82%
    04:00 +13°C° 0 mm 1 mps 724 mmHg 83%
    05:00 +12°C° 0 mm 0 mps 724 mmHg 83%
    06:00 +14°C° 0 mm 1 mps 724 mmHg 77%
    07:00 +16°C° 0 mm 1 mps 725 mmHg 71%
    08:00 +18°C° 0 mm 1 mps 725 mmHg 63%
    09:00 +19°C° 0 mm 2 mps 725 mmHg 57%
    10:00 +20°C° 0 mm 2 mps 725 mmHg 51%
    11:00 +22°C° 0 mm 3 mps 725 mmHg 45%
    12:00 +24°C° 0 mm 3 mps 725 mmHg 42%
    13:00 +25°C° 0 mm 3 mps 724 mmHg 40%
    14:00 +26°C° 0 mm 2 mps 724 mmHg 37%
    15:00 +26°C° 0 mm 3 mps 724 mmHg 38%
    16:00 +25°C° 0 mm 3 mps 723 mmHg 39%
    17:00 +25°C° 0 mm 4 mps 723 mmHg 40%
    18:00 +22°C° 0 mm 3 mps 724 mmHg 46%
    19:00 +21°C° 0 mm 3 mps 724 mmHg 53%
    20:00 +19°C° 0 mm 2 mps 725 mmHg 59%
    21:00 +19°C° 0 mm 2 mps 725 mmHg 62%
    22:00 +19°C° 0 mm 1 mps 725 mmHg 64%
    23:00 +19°C° 0 mm 1 mps 726 mmHg 67%

    Tomorrow, 18 October, Friday

    Time Temperature Precipitation Wind Pressure Humidity
    00:00 +19°C° 0 mm 1 mps 726 mmHg 69%
    01:00 +18°C° 0 mm 1 mps 726 mmHg 71%
    02:00 +18°C° 0 mm 1 mps 726 mmHg 72%
    03:00 +16°C° 0 mm 1 mps 726 mmHg 73%
    04:00 +16°C° 0 mm 1 mps 726 mmHg 74%
    05:00 +15°C° 0 mm 1 mps 726 mmHg 75%
    06:00 +18°C° 0 mm 1 mps 726 mmHg 68%
    07:00 +19°C° 0 mm 1 mps 727 mmHg 62%
    08:00 +21°C° 0 mm 1 mps 727 mmHg 55%
    09:00 +21°C° 0 mm 2 mps 728 mmHg 48%
    10:00 +24°C° 0 mm 2 mps 728 mmHg 41%
    11:00 +25°C° 0 mm 3 mps 728 mmHg 34%
    12:00 +26°C° 0 mm 3 mps 728 mmHg 32%
    13:00 +27°C° 0 mm 3 mps 728 mmHg 29%
    14:00 +27°C° 0 mm 3 mps 727 mmHg 27%
    15:00 +27°C° 0 mm 3 mps 727 mmHg 28%
    16:00 +27°C° 0 mm 4 mps 727 mmHg 28%
    17:00 +26°C° 0 mm 4 mps 726 mmHg 29%
    18:00 +23°C° 0 mm 4 mps 727 mmHg 32%
    19:00 +22°C° 0 mm 3 mps 727 mmHg 36%
    20:00 +20°C° 0 mm 3 mps 727 mmHg 40%
    21:00 +19°C° 0 mm 2 mps 728 mmHg 42%
    22:00 +18°C° 0 mm 2 mps 728 mmHg 44%
    23:00 +18°C° 0 mm 1 mps 729 mmHg 47%

    Day after tomorrow, 19 October, Saturday

    Time Temperature Precipitation Wind Pressure Humidity
    00:00 +18°C° 0 mm 1 mps 729 mmHg 49%
    01:00 +18°C° 0 mm 1 mps 728 mmHg 51%
    02:00 +18°C° 0 mm 1 mps 728 mmHg 54%
    03:00 +16°C° 0 mm 1 mps 728 mmHg 55%
    04:00 +16°C° 0 mm 1 mps 729 mmHg 57%
    05:00 +15°C° 0 mm 1 mps 729 mmHg 58%
    06:00 +18°C° 0 mm 1 mps 729 mmHg 56%
    07:00 +18°C° 0 mm 2 mps 729 mmHg 54%
    08:00 +19°C° 0 mm 3 mps 730 mmHg 52%
    09:00 +20°C° 0 mm 3 mps 729 mmHg 46%
    10:00 +22°C° 0 mm 4 mps 729 mmHg 40%
    11:00 +23°C° 0 mm 4 mps 729 mmHg 34%
    12:00 +25°C° 0 mm 4 mps 729 mmHg 32%
    13:00 +25°C° 0 mm 4 mps 728 mmHg 30%
    14:00 +26°C° 0 mm 5 mps 727 mmHg 28%
    15:00 +25°C° 0 mm 5 mps 727 mmHg 29%
    16:00 +25°C° 0 mm 5 mps 726 mmHg 31%
    17:00 +23°C° 0 mm 5 mps 725 mmHg 32%
    18:00 +21°C° 0 mm 4 mps 726 mmHg 35%
    19:00 +20°C° 0 mm 3 mps 726 mmHg 38%
    20:00 +18°C° 0 mm 2 mps 726 mmHg 42%
    21:00 +18°C° 0 mm 2 mps 726 mmHg 43%
    22:00 +18°C° 0 mm 2 mps 726 mmHg 44%
    23:00 +17°C° 0 mm 2 mps 726 mmHg 46%

    20 October, Sunday

    Time Temperature Precipitation Wind Pressure Humidity
    00:00 +17°C° 0 mm 2 mps 725 mmHg 48%
    01:00 +17°C° 0 mm 2 mps 725 mmHg 50%
    02:00 +16°C° 0 mm 2 mps 724 mmHg 52%
    03:00 +16°C° 0 mm 2 mps 724 mmHg 54%
    04:00 +16°C° 0 mm 2 mps 724 mmHg 56%
    05:00 +16°C° 0 mm 1 mps 724 mmHg 58%
    06:00 +16°C° 0.2 mm 1 mps 725 mmHg 60%
    07:00 +16°C° 0.2 mm 1 mps 725 mmHg 62%
    08:00 +18°C° 0.2 mm 1 mps 726 mmHg 63%
    09:00 +19°C° 0 mm 1 mps 726 mmHg 59%
    10:00 +19°C° 0 mm 2 mps 726 mmHg 56%
    11:00 +20°C° 0 mm 2 mps 726 mmHg 52%
    12:00 +21°C° 0 mm 2 mps 725 mmHg 48%
    13:00 +23°C° 0 mm 2 mps 725 mmHg 45%
    14:00 +24°C° 0 mm 2 mps 725 mmHg 41%
    15:00 +24°C° 0.1 mm 2 mps 724 mmHg 41%
    16:00 +24°C° 0.1 mm 2 mps 724 mmHg 42%
    17:00 +22°C° 0.1 mm 3 mps 724 mmHg 42%
    18:00 +21°C° 0 mm 2 mps 724 mmHg 48%
    19:00 +19°C° 0 mm 2 mps 724 mmHg 54%
    20:00 +17°C° 0 mm 2 mps 724 mmHg 60%
    21:00 +17°C° 0 mm 2 mps 725 mmHg 64%
    22:00 +16°C° 0 mm 1 mps 725 mmHg 67%
    23:00 +15°C° 0 mm 1 mps 725 mmHg 71%

    21 October, Monday

    Time Temperature Precipitation Wind Pressure Humidity
    00:00 +15°C° 0 mm 1 mps 725 mmHg 73%
    01:00 +14°C° 0 mm 1 mps 725 mmHg 74%
    02:00 +14°C° 0 mm 1 mps 724 mmHg 76%
    03:00 +14°C° 0 mm 1 mps 724 mmHg 77%
    04:00 +14°C° 0 mm 1 mps 725 mmHg 78%
    05:00 +13°C° 0 mm 1 mps 725 mmHg 79%
    06:00 +15°C° 0 mm 1 mps 725 mmHg 68%
    07:00 +18°C° 0 mm 2 mps 726 mmHg 58%
    08:00 +20°C° 0 mm 2 mps 726 mmHg 47%
    09:00 +23°C° 0 mm 2 mps 727 mmHg 41%
    10:00 +24°C° 0 mm 3 mps 727 mmHg 35%
    11:00 +26°C° 0 mm 4 mps 727 mmHg 28%
    12:00 +27°C° 0 mm 4 mps 726 mmHg 27%
    13:00 +28°C° 0 mm 4 mps 726 mmHg 25%
    14:00 +28°C° 0 mm 4 mps 725 mmHg 23%
    15:00 +28°C° 0 mm 4 mps 725 mmHg 24%
    16:00 +27°C° 0 mm 4 mps 725 mmHg 24%
    17:00 +27°C° 0 mm 4 mps 724 mmHg 25%
    18:00 +25°C° 0 mm 3 mps 724 mmHg 30%
    19:00 +22°C° 0 mm 3 mps 725 mmHg 35%
    20:00 +20°C° 0 mm 2 mps 725 mmHg 40%
    21:00 +19°C° 0 mm 2 mps 725 mmHg 43%
    22:00 +19°C° 0 mm 1 mps 726 mmHg 45%
    23:00 +18°C° 0 mm 1 mps 726 mmHg 48%

    22 October, Tuesday

    Time Temperature Precipitation Wind Pressure Humidity
    00:00 +18°C° 0 mm 1 mps 726 mmHg 49%
    01:00 +18°C° 0 mm 1 mps 726 mmHg 50%
    02:00 +16°C° 0 mm 1 mps 725 mmHg 51%
    03:00 +16°C° 0 mm 1 mps 725 mmHg 52%
    04:00 +16°C° 0 mm 1 mps 725 mmHg 54%
    05:00 +15°C° 0 mm 2 mps 726 mmHg 55%
    06:00 +17°C° 0 mm 2 mps 726 mmHg 50%
    07:00 +19°C° 0 mm 2 mps 726 mmHg 44%
    08:00 +21°C° 0 mm 3 mps 727 mmHg 39%
    09:00 +22°C° 0 mm 4 mps 727 mmHg 35%
    10:00 +25°C° 0 mm 5 mps 727 mmHg 32%
    11:00 +26°C° 0 mm 6 mps 727 mmHg 28%
    12:00 +27°C° 0 mm 6 mps 726 mmHg 28%
    13:00 +27°C° 0 mm 6 mps 726 mmHg 27%
    14:00 +28°C° 0 mm 6 mps 725 mmHg 27%
    15:00 +28°C° 0 mm 6 mps 724 mmHg 28%
    16:00 +27°C° 0 mm 6 mps 724 mmHg 30%
    17:00 +27°C° 0 mm 6 mps 723 mmHg 31%
    18:00 +25°C° 0 mm 5 mps 724 mmHg 34%
    19:00 +22°C° 0 mm 4 mps 724 mmHg 38%
    20:00 +20°C° 0 mm 3 mps 724 mmHg 41%
    21:00 +20°C° 0 mm 3 mps 724 mmHg 41%
    22:00 +19°C° 0 mm 3 mps 724 mmHg 41%
    23:00 +18°C° 0 mm 2 mps 725 mmHg 41%
    Show more